This demonstration page uses our WeatherBlox Daily Observations layout. Learn more.

Left ArrowRight Arrow

Hourly Observations for August 16, 2022

Temp ( °F °C ) Dew Point ( °F °C ) Humidity (%) Winds ( mph kmh ) Pressure ( in mb ) Visibility ( mi km ) Precip ( " mm )
12:52 am 00:52 Clear 75 23.9 67 19.4 76 76 SE 17 28 29.90 1012 10 16 0.00 0.00
1:52 am 01:52 Mostly Cloudy 75 23.9 67 19.4 76 76 SE 16 26 29.89 1012 10 16 0.00 0.00
2:52 am 02:52 Cloudy 74 23.3 67 19.4 79 79 SE 15 24 29.89 1012 10 16 0.00 0.00
3:52 am 03:52 Cloudy 73 22.8 67 19.4 81 81 undefined N/A 29.88 1012 10 16 0.00 0.00
4:23 am 04:23 Mostly Cloudy 73 22.8 67 19.4 81 81 undefined N/A 29.88 1012 10 16 0.00 0.00
4:45 am 04:45 Cloudy with Thunderstorms 73 22.8 67 19.4 81 81 SE 9 15 29.89 1012 10 16 0.00 0.00
4:52 am 04:52 Mostly Cloudy with Thunderstorms 73 22.8 67 19.4 81 81 ENE 12 19 29.90 1013 8 13 0.01 0.13
5:25 am 05:25 Cloudy with Nearby Thunderstorms 73 22.8 66 18.9 79 79 E 13 20 29.92 1013 10 16 0.01 0.13
5:44 am 05:44 Cloudy 71 21.7 65 18.3 81 81 E 13 20 29.93 1013 10 16 0.01 0.13
5:52 am 05:52 Cloudy 71 21.7 65 18.3 81 81 E 14 22 29.93 1013 10 16 0.01 0.13
6:26 am 06:26 Partly Cloudy 69 20.6 65 18.3 87 87 undefined N/A 29.94 1014 10 16 0.00 0.00
6:52 am 06:52 Sunny 69 20.6 65 18.3 87 87 undefined N/A 29.93 1014 9 14 0.00 0.00
7:40 am 07:40 Mostly Cloudy 69 20.6 65 18.3 87 87 E 15 24 29.96 1015 10 16 0.00 0.00
7:52 am 07:52 Cloudy 70 21.1 65 18.3 84 84 undefined N/A 29.97 1015 10 16 0.00 0.00
8:38 am 08:38 Cloudy 70 21.1 65 18.3 84 84 undefined N/A 30.00 1016 10 16 0.00 0.00
8:52 am 08:52 Cloudy 70 21.1 65 18.3 84 84 undefined N/A 30.00 1016 10 16 0.00 0.00
9:06 am 09:06 Cloudy 70 21.1 65 18.3 84 84 undefined N/A 30.00 1016 10 16 0.00 0.00
9:52 am 09:52 Mostly Cloudy 71 21.7 65 18.3 81 81 undefined N/A 29.99 1016 10 16 0.00 0.00
10:16 am 10:16 Mostly Cloudy with Light Rain 70 21.1 64 17.8 81 81 undefined N/A 30.02 1017 10 16 0.01 0.13
10:52 am 10:52 Cloudy with Light Rain 70 21.1 64 17.8 81 81 ENE 14 22 30.02 1017 10 16 0.01 0.13
11:39 am 11:39 Mostly Cloudy 72 22.2 64 17.8 76 76 SE 22 35 29.98 1015 10 16 0.01 0.13
11:52 am 11:52 Cloudy 73 22.8 64 17.8 73 73 undefined N/A 29.98 1015 10 16 0.01 0.13
12:52 pm 12:52 Mostly Cloudy 74 23.3 63 17.2 69 69 E 8 13 30.01 1016 10 16 0.00 0.00
1:38 pm 13:38 Cloudy with Nearby Thunderstorms 74 23.3 64 17.8 71 71 ESE 16 26 29.97 1015 10 16 0.01 0.13
1:52 pm 13:52 Mostly Cloudy with Nearby Thunderstorms 76 24.4 64 17.8 67 67 SE 14 22 29.97 1015 10 16 0.01 0.13
2:06 pm 14:06 Mostly Cloudy 77 25 65 18.3 66 66 SE 17 28 29.94 1014 10 16 0.00 0.00
2:52 pm 14:52 Mostly Cloudy 79 26.1 66 18.9 65 65 SSE 15 24 29.94 1014 10 16 0.00 0.00
3:52 pm 15:52 Mostly Sunny 81 27.2 67 19.4 62 62 SE 17 28 29.92 1013 10 16 0.00 0.00
4:06 pm 16:06 Partly Cloudy with Thunderstorms 80 26.7 66 18.9 62 62 SSE 14 22 29.90 1013 10 16 0.00 0.00
4:21 pm 16:21 Partly Cloudy with Nearby Thunderstorms 82 27.8 67 19.4 60 60 SSE 21 33 29.89 1012 10 16 0.00 0.00
4:33 pm 16:33 Mostly Cloudy 82 27.8 67 19.4 60 60 SSE 16 26 29.88 1012 10 16 0.00 0.00
4:52 pm 16:52 Mostly Cloudy 80 26.7 66 18.9 62 62 SE 13 20 29.91 1013 10 16 0.00 0.00
5:28 pm 17:28 Mostly Cloudy with Nearby Thunderstorms 75 23.9 70 21.1 84 84 ENE 12 19 29.93 1013 5 8 0.01 0.25
5:37 pm 17:37 Mostly Cloudy with Thunderstorms 74 23.3 71 21.7 91 91 NE 14 22 29.93 1013 4 6 0.01 0.25
5:43 pm 17:43 Cloudy with Strong Thunderstorms 73 22.8 71 21.7 94 94 ENE 14 22 29.93 1014 2 3 0.05 1.27
5:50 pm 17:50 Cloudy with Nearby Thunderstorms 73 23 72 22 94 94 ENE 10 17 29.93 1014 2 3 0.13 3.30
5:52 pm 17:52 Cloudy with Nearby Thunderstorms 73 22.8 71 21.7 94 94 ENE 10 17 29.95 1014 3 4 0.13 3.30
5:59 pm 17:59 Mostly Cloudy with Nearby Thunderstorms 73 22.8 71 21.7 94 94 ENE 7 11 29.93 1014 7 11 0.01 0.13
6:10 pm 18:10 Mostly Sunny 74 23.3 71 21.7 91 91 ENE 9 15 29.93 1013 8 13 0.01 0.13
6:27 pm 18:27 Mostly Sunny 73 22.8 71 21.7 94 94 ENE 12 19 29.93 1014 8 13 0.01 0.13
6:52 pm 18:52 Mostly Sunny 72 22.2 70 21.1 93 93 E 10 17 29.94 1014 9 14 0.01 0.13
7:08 pm 19:08 Partly Cloudy with Nearby Thunderstorms 72 22.2 69 20.6 91 91 ENE 14 22 29.92 1013 9 14 0.00 0.00
7:23 pm 19:23 Mostly Cloudy 71 21.7 68 20 90 90 E 12 19 29.93 1013 10 16 0.00 0.00
7:52 pm 19:52 Sunny 71 21.7 68 20 90 90 ENE 13 20 29.94 1014 10 16 0.00 0.00
8:42 pm 20:42 Mostly Clear with Thunderstorms 70 21.1 68 20 93 93 ENE 12 19 29.96 1015 10 16 0.00 0.00
8:52 pm 20:52 Mostly Cloudy with Thunderstorms 71 21.7 67 19.4 87 87 ENE 10 17 29.96 1015 10 16 0.00 0.00
9:10 pm 21:10 Cloudy with Thunderstorms 69 20.6 68 20 96 96 NNW 21 33 30.01 1016 3 5 0.12 3.05
9:17 pm 21:17 Cloudy with Strong Thunderstorms 69 20.6 68 20 96 96 E 14 22 29.98 1015 3 4 0.13 3.30
9:23 pm 21:23 Cloudy with Strong Thunderstorms 68 20 68 20 100 100 ENE 12 19 29.98 1015 2 2 0.29 7.37
9:27 pm 21:27 Cloudy with Strong Thunderstorms 68 20 68 20 100 100 E 13 20 29.99 1016 2 3 0.35 8.89
9:37 pm 21:37 Cloudy with Thunderstorms 68 20 68 20 100 100 E 3 6 30.01 1016 5 8 0.39 9.91
10:00 pm 22:00 Cloudy with Nearby Thunderstorms 69 20.6 67 19.4 93 93 ENE 6 9 30.01 1016 6 10 0.02 0.51
10:19 pm 22:19 Cloudy with Rain 68 20 67 19.4 96 96 ENE 12 19 29.99 1016 5 8 0.05 1.27
10:40 pm 22:40 Cloudy with Light Rain 68 20 67 19.4 96 96 ENE 13 20 29.99 1016 7 11 0.10 2.54
10:52 pm 22:52 Cloudy with Rain 68 20 67 19.4 96 96 E 9 15 30.01 1016 8 13 0.12 3.05
11:52 pm 23:52 Mostly Cloudy with Light Rain 67 19.4 66 18.9 97 97 ESE 12 19 29.99 1016 10 16 0.06 1.52

Powered by AerisWeather